User: anonymous   Login
Location: Unspecified
(0.0000°N, 0.0000°E)
Time: 06:58:33
(UTC+00:00)
Language:

CLOUDSAT - Orbit

View from above orbital plane
View from above orbital plane
View from above satellite
View from above satellite

Ground track
Ground track

The orbit data is extracted from the following two-line orbital elements,

1 29107U 06016A   14303.12790953  .00001060  00000-0  24533-3 0  8197
2 29107 098.2106 244.9469 0001413 095.6627 264.4737 14.57109126452481
Epoch (UTC): 30 October 2014 03:04:11
Eccentricity: 0.0001413
inclination: 98.2106°
perigee height: 701 km
apogee height: 703 km
right ascension of ascending node: 244.9469°
argument of perigee: 95.6627°
revolutions per day: 14.57109126
mean anomaly at epoch: 264.4737°
orbit number at epoch: 45248

The dashed part of the orbit path shows where the satellite is in the earth's shadow,  

DLR